Regional Weather Roundup
Issued by NWS Sterling, VA

Home | Current Version | Previous Version | Text Only | Print | Product List | Glossary Off
Versions: 1 2 3 4 5 6 7 8 9 10 11 12 13 14 15 16 17 18 19 20 21 22 23 24 25 26 27 28 29 30 31 32 33 34 35 36 37 38 39 40 41 42 43 44 45 46 47 48 49

000
ASUS41 KLWX 262210
RWRLWX

REGIONAL WEATHER ROUNDUP
NATIONAL WEATHER SERVICE BALTIMORE MD/WASHINGTON DC
500 PM EST THU FEB 26 2015

Note: "FAIR" indicates few or no clouds below 12,000 feet
with no significant weather and/or obstructions to visibility.
 TC=TEMPERATURE CELSIUS

 * =Non NWS site. Station does not report precipitation (e.g. rain,
    snow, etc.), thunder, or fog.

DCZ001-MDZ009-015-VAZ040>042-051-053>054-262300-
WASHINGTON METRO

CITY           SKY/WX    TMP DP  RH WIND       PRES   REMARKS
WASHINGTON NAT CLOUDY    38  23  55 N6        30.00R
DULLES         CLOUDY    34  20  56 CALM      29.99R
ANDREWS AFB    CLOUDY    35  23  61 N7        29.98R
FT BELVOIR     CLOUDY    36  23  59 NW6       30.00R
QUANTICO       CLOUDY    36  24  62 N5        30.02R
COLLEGE PARK*  CLOUDY    36  23  60 N3        29.99R
LEESBURG*      CLOUDY    34  27  75 CALM      29.99R
MANASSAS*      CLOUDY    36  27  69 N5        29.99R
GAITHERSBURG*  CLOUDY    32  18  55 W3        30.02R

$$

MDZ006>007-011-014-262300-
BALTIMORE METRO

CITY           SKY/WX    TMP DP  RH WIND       PRES   REMARKS
BWI AIRPORT    CLOUDY    34  19  54 N6        29.99R
MD SCIENCE CTR   N/A     34  19  54 MISG      29.99R
MARTIN STATE   MOCLDY    34  21  60 N6        30.01R
ANNAPOLIS      CLOUDY    32  21  64 NE6       30.00R
FORT MEADE*    CLOUDY    34  21  60 CALM      30.01R

$$

MDZ012-015-019>023-262300-
MARYLAND EASTERN SHORE

CITY           SKY/WX    TMP DP  RH WIND       PRES   REMARKS
OCEAN CITY     CLOUDY    30  22  72 N10       29.99R WCI  21
SALISBURY      CLOUDY    34  23  64 N6        29.99R
BAY BRIDGE AP*   N/A     32  21  64 N6        30.00R
CAMBRIDGE*     CLOUDY    34  23  64 NW8       29.99R WCI  27
EASTON*        CLOUDY    34  23  64 N6        30.03R

$$

MDZ017>025-262300-
SOUTHERN MARYLAND

CITY           SKY/WX    TMP DP  RH WIND       PRES   REMARKS
PATUXENT RIVER MOCLDY    32  22  66 N10       29.99R WCI  24
ST INIGOES     CLOUDY    32  21  64 N7        29.99R
LEONARDTOWN*   CLOUDY    32  23  69 CALM      30.01R

$$

MDZ003>005-262300-
NORTH CENTRAL MARYLAND

CITY           SKY/WX    TMP DP  RH WIND       PRES   REMARKS
FREDERICK*     CLOUDY    36  16  44 CALM      30.02R
HAGERSTOWN APT CLOUDY    33  20  58 E6        29.95R
WESTMINSTER*   MOCLDY    30  18  59 N3        29.95S

$$

MDZ501>502-262300-
WESTERN MARYLAND

CITY           SKY/WX    TMP DP  RH WIND       PRES   REMARKS
OAKLAND*       NOT AVBL
CUMBERLAND*    MOSUNNY   36  23  60 CALM      29.96R

$$

VAZ025>031-262300-
SHENANDOAH VALLEY

CITY           SKY/WX    TMP DP  RH WIND       PRES   REMARKS
WINCHESTER*    CLOUDY    34  19  55 CALM      29.96R
FRONT ROYAL*   CLOUDY    32  25  74 CALM      29.95R
LURAY*         CLOUDY    36  28  75 CALM      29.95R
NEW MARKET*    CLOUDY    34  23  63 CALM      29.93R
STAUNTON*      CLOUDY    35  22  60 CALM      29.95R
WAYNESBORO*    CLOUDY    33  22  64 CALM      29.92R

$$

WVZ021-048>050-054>055-262300-
EASTERN WEST VIRGINIA PANHANDLE

CITY           SKY/WX    TMP DP  RH WIND       PRES   REMARKS
MARTINSBURG    CLOUDY    35  21  56 CALM      29.96R
PETERSBURG*    NOT AVBL

$$

VAZ036>039-050-262300-
CENTRAL FOOTHILLS

CITY           SKY/WX    TMP DP  RH WIND       PRES   REMARKS
CHARLOTTESVILL CLOUDY    36  24  62 E7        29.97R
CULPEPER*      CLOUDY    36  27  69 CALM      29.99R
ORANGE*        CLOUDY    36  28  75 N3        30.00R
GORDONSVILLE*  CLOUDY    34  25  68 NE3       29.98R
WARRENTON*     CLOUDY    36  29  78 N3        29.99R

$$

VAZ055>057-262300-
NORTH AND CENTRAL PIEDMONT

CITY           SKY/WX    TMP DP  RH WIND       PRES   REMARKS
FREDERICKSBRG* CLOUDY    37  27  67 N3        30.00R
STAFFORD*      CLOUDY    35  24  64 N5        30.04R

$$

NCZ024-NYZ072-PAZ021-071-VAZ022-071-262300-
OTHER REGIONAL OBSERVATIONS

CITY           SKY/WX    TMP DP  RH WIND       PRES   REMARKS
NEW YORK CITY  CLOUDY    26  12  55 VRB7      30.02R
PHILADELPHIA   CLOUDY    31  17  56 N10       30.01R WCI  22
PITTSBURGH     FLURRIES  19  13  77 NW13      30.00R WCI   6
ROANOKE        CLOUDY    38  26  62 CALM      29.95R
RICHMOND       CLOUDY    37  26  64 N7        29.99R
RALEIGH        CLOUDY    35  28  75 CALM      29.99R

$$

ANZ530>537-262300-
MARINE OBSERVATIONS

STATION/POSITION TIME  TEMP    WIND        PRES
                       AIR SEA DIR/SP/G
                 (UTC) (F)     (DEG/KT/KT) (MB)
THOMAS PT LIGHT  2200   31 31   40/  9/ 11 1016.9R
BALT KEY BRIDGE  2100   33     320/  8/  9 1015.1R
COVE POINT       2100   30      30/ 17/ 19 1014.7R
LEWISETTA        2100   30 32   CALM  /  3 1014.7R
SOLOMONS ISLAND  2100      33                N/A

$$



USA.gov is the U.S. government's official web portal to all federal, state and local government web resources and services.